Time,TemperatureF,DewpointF,PressureIn,WindDirection,WindDirectionDegrees,WindSpeedMPH,WindSpeedGustMPH,Humidity,HourlyPrecipIn,Conditions,Clouds,dailyrainin,SoftwareType,DateUTC
2013-05-02 00:02:00,66.0,55.4,29.65,East,97,2.5,4.9,66,0.00,,,0.00,WUHU216WMR968SP,2013-05-02 05:02:00,
2013-05-02 00:07:00,66.2,53.6,29.65,NE,39,2.2,4.0,65,0.00,,,0.00,WUHU216WMR968SP,2013-05-02 05:07:00,
2013-05-02 00:12:00,66.2,53.6,29.65,ESE,106,0.0,4.0,64,0.00,,,0.00,WUHU216WMR968SP,2013-05-02 05:12:00,
2013-05-02 00:17:00,66.0,53.6,29.65,SE,133,2.2,4.9,64,0.00,,,0.00,WUHU216WMR968SP,2013-05-02 05:17:00,
2013-05-02 00:22:00,66.0,53.6,29.68,SE,125,2.3,6.3,63,0.00,,,0.00,WUHU216WMR968SP,2013-05-02 05:22:00,
2013-05-02 00:27:00,66.0,53.6,29.68,SSE,164,2.7,6.3,63,0.00,,,0.00,WUHU216WMR968SP,2013-05-02 05:27:00,
2013-05-02 00:32:00,66.0,53.6,29.68,East,82,0.0,4.9,62,0.00,,,0.00,WUHU216WMR968SP,2013-05-02 05:32:00,
2013-05-02 00:36:00,65.8,53.6,29.68,East,91,2.7,5.4,62,0.00,,,0.00,WUHU216WMR968SP,2013-05-02 05:36:00,
2013-05-02 00:41:00,65.8,53.6,29.68,East,100,0.0,5.4,62,0.00,,,0.00,WUHU216WMR968SP,2013-05-02 05:41:00,
2013-05-02 00:46:00,65.7,53.6,29.68,ENE,75,0.0,3.6,62,0.00,,,0.00,WUHU216WMR968SP,2013-05-02 05:46:00,
2013-05-02 00:51:00,65.7,53.6,29.65,ENE,75,0.0,3.6,62,0.00,,,0.00,WUHU216WMR968SP,2013-05-02 05:51:00,
2013-05-02 00:56:00,65.7,53.6,29.65,ENE,75,0.0,3.1,63,0.00,,,0.00,WUHU216WMR968SP,2013-05-02 05:56:00,
2013-05-02 01:01:00,65.7,53.6,29.65,ENE,75,0.0,3.1,62,0.00,,,0.00,WUHU216WMR968SP,2013-05-02 06:01:00,
2013-05-02 01:06:00,65.7,53.6,29.65,ENE,75,0.0,2.7,62,0.00,,,0.00,WUHU216WMR968SP,2013-05-02 06:06:00,
2013-05-02 01:11:00,65.7,53.6,29.65,ENE,75,0.0,2.7,62,0.00,,,0.00,WUHU216WMR968SP,2013-05-02 06:11:00,
2013-05-02 01:16:00,65.5,53.6,29.65,ENE,75,0.0,0.0,62,0.00,,,0.00,WUHU216WMR968SP,2013-05-02 06:16:00,
2013-05-02 01:21:00,65.3,53.6,29.65,ENE,75,0.0,0.0,62,0.00,,,0.00,WUHU216WMR968SP,2013-05-02 06:21:00,
2013-05-02 01:26:00,65.1,51.8,29.65,ENE,75,0.0,0.0,62,0.00,,,0.00,WUHU216WMR968SP,2013-05-02 06:26:00,
2013-05-02 01:31:00,64.9,51.8,29.65,ENE,75,0.0,0.0,63,0.00,,,0.00,WUHU216WMR968SP,2013-05-02 06:31:00,
2013-05-02 01:36:00,64.9,51.8,29.65,ENE,75,0.0,0.0,63,0.00,,,0.00,WUHU216WMR968SP,2013-05-02 06:36:00,
2013-05-02 01:41:00,65.1,51.8,29.65,ENE,75,0.0,0.0,63,0.00,,,0.00,WUHU216WMR968SP,2013-05-02 06:41:00,
2013-05-02 01:46:00,65.1,51.8,29.65,ENE,75,0.0,0.0,63,0.00,,,0.00,WUHU216WMR968SP,2013-05-02 06:46:00,
2013-05-02 01:51:00,65.5,53.6,29.65,ENE,75,0.0,2.7,63,0.00,,,0.00,WUHU216WMR968SP,2013-05-02 06:51:00,
2013-05-02 01:56:00,65.7,53.6,29.65,ENE,75,0.0,2.7,62,0.00,,,0.00,WUHU216WMR968SP,2013-05-02 06:56:00,
2013-05-02 02:01:00,65.5,51.8,29.65,ENE,75,0.0,0.0,61,0.00,,,0.00,WUHU216WMR968SP,2013-05-02 07:01:00,
2013-05-02 02:06:00,65.5,51.8,29.65,ENE,75,0.0,0.0,61,0.00,,,0.00,WUHU216WMR968SP,2013-05-02 07:06:00,
2013-05-02 02:11:00,65.3,51.8,29.65,ENE,75,0.0,0.0,61,0.00,,,0.00,WUHU216WMR968SP,2013-05-02 07:11:00,
2013-05-02 02:16:00,65.1,50.0,29.65,ENE,75,0.0,3.1,61,0.00,,,0.00,WUHU216WMR968SP,2013-05-02 07:16:00,
2013-05-02 02:21:00,65.1,50.0,29.65,ENE,75,0.0,3.1,61,0.00,,,0.00,WUHU216WMR968SP,2013-05-02 07:21:00,
2013-05-02 02:26:00,65.3,51.8,29.65,ENE,75,0.0,3.1,61,0.00,,,0.00,WUHU216WMR968SP,2013-05-02 07:26:00,
2013-05-02 02:31:00,65.1,50.0,29.65,ENE,75,0.0,3.1,60,0.00,,,0.00,WUHU216WMR968SP,2013-05-02 07:31:00,
2013-05-02 02:36:00,65.1,50.0,29.65,ENE,59,0.0,3.6,60,0.00,,,0.00,WUHU216WMR968SP,2013-05-02 07:36:00,
2013-05-02 02:41:00,65.1,50.0,29.65,East,79,0.0,3.6,60,0.00,,,0.00,WUHU216WMR968SP,2013-05-02 07:41:00,
2013-05-02 02:46:00,65.1,50.0,29.65,NE,41,0.0,3.1,60,0.00,,,0.00,WUHU216WMR968SP,2013-05-02 07:46:00,
2013-05-02 02:51:00,65.1,50.0,29.65,ENE,74,0.0,3.1,60,0.00,,,0.00,WUHU216WMR968SP,2013-05-02 07:51:00,
2013-05-02 02:56:00,65.1,50.0,29.65,NE,42,0.0,3.1,59,0.00,,,0.00,WUHU216WMR968SP,2013-05-02 07:56:00,
2013-05-02 03:01:00,65.5,51.8,29.65,ENE,75,0.0,3.1,59,0.00,,,0.00,WUHU216WMR968SP,2013-05-02 08:01:00,
2013-05-02 03:06:00,65.7,50.0,29.65,ENE,75,0.0,3.1,57,0.00,,,0.00,WUHU216WMR968SP,2013-05-02 08:06:00,
2013-05-02 03:11:00,65.5,50.0,29.65,NNE,30,0.0,3.6,57,0.00,,,0.00,WUHU216WMR968SP,2013-05-02 08:11:00,
2013-05-02 03:16:00,65.1,48.2,29.65,ENE,70,0.0,3.6,57,0.00,,,0.00,WUHU216WMR968SP,2013-05-02 08:16:00,
2013-05-02 03:21:00,65.1,48.2,29.65,NE,48,0.0,4.0,57,0.00,,,0.00,WUHU216WMR968SP,2013-05-02 08:21:00,
2013-05-02 03:26:00,64.9,48.2,29.65,NNE,29,0.0,4.0,57,0.00,,,0.00,WUHU216WMR968SP,2013-05-02 08:26:00,
2013-05-02 03:31:00,64.8,50.0,29.65,ENE,66,0.0,3.6,58,0.00,,,0.00,WUHU216WMR968SP,2013-05-02 08:31:00,
2013-05-02 03:36:00,64.8,50.0,29.65,ENE,74,0.0,3.6,58,0.00,,,0.00,WUHU216WMR968SP,2013-05-02 08:36:00,
2013-05-02 03:41:00,64.8,50.0,29.65,ENE,72,0.0,4.0,58,0.00,,,0.00,WUHU216WMR968SP,2013-05-02 08:41:00,
2013-05-02 03:46:00,64.6,50.0,29.65,NE,51,0.0,4.0,58,0.00,,,0.00,WUHU216WMR968SP,2013-05-02 08:46:00,
2013-05-02 03:51:00,64.6,50.0,29.65,ENE,65,0.0,4.0,58,0.00,,,0.00,WUHU216WMR968SP,2013-05-02 08:51:00,
2013-05-02 03:56:00,64.8,50.0,29.65,ESE,123,0.0,5.4,58,0.00,,,0.00,WUHU216WMR968SP,2013-05-02 08:56:00,
2013-05-02 04:01:00,65.1,48.2,29.65,East,96,0.0,5.4,57,0.00,,,0.00,WUHU216WMR968SP,2013-05-02 09:01:00,
2013-05-02 04:06:00,64.9,48.2,29.65,NE,52,0.0,5.4,56,0.00,,,0.00,WUHU216WMR968SP,2013-05-02 09:06:00,
2013-05-02 04:11:00,64.8,48.2,29.65,ESE,110,0.0,4.0,56,0.00,,,0.00,WUHU216WMR968SP,2013-05-02 09:11:00,
2013-05-02 04:16:00,64.8,48.2,29.65,ESE,105,2.2,4.0,56,0.00,,,0.00,WUHU216WMR968SP,2013-05-02 09:16:00,
2013-05-02 04:21:00,64.6,48.2,29.65,ENE,65,2.2,4.0,56,0.00,,,0.00,WUHU216WMR968SP,2013-05-02 09:21:00,
2013-05-02 04:26:00,64.6,48.2,29.65,NNE,22,2.7,4.9,57,0.00,,,0.00,WUHU216WMR968SP,2013-05-02 09:26:00,
2013-05-02 04:31:00,64.4,48.2,29.65,ESE,104,3.1,4.9,57,0.00,,,0.00,WUHU216WMR968SP,2013-05-02 09:31:00,
2013-05-02 04:36:00,64.4,48.2,29.65,ESE,104,3.0,6.3,56,0.00,,,0.00,WUHU216WMR968SP,2013-05-02 09:36:00,
2013-05-02 04:41:00,64.4,48.2,29.65,East,85,2.5,6.3,56,0.00,,,0.00,WUHU216WMR968SP,2013-05-02 09:41:00,
2013-05-02 04:46:00,64.4,48.2,29.65,East,86,2.2,5.4,56,0.00,,,0.00,WUHU216WMR968SP,2013-05-02 09:46:00,
2013-05-02 04:51:00,64.4,48.2,29.65,SE,126,3.1,5.8,55,0.00,,,0.00,WUHU216WMR968SP,2013-05-02 09:51:00,
2013-05-02 04:56:00,64.4,48.2,29.65,NE,54,0.0,5.8,55,0.00,,,0.00,WUHU216WMR968SP,2013-05-02 09:56:00,
2013-05-02 05:01:00,64.4,48.2,29.65,ENE,71,2.7,5.4,54,0.00,,,0.00,WUHU216WMR968SP,2013-05-02 10:01:00,
2013-05-02 05:06:00,64.8,48.2,29.65,East,100,2.2,5.4,54,0.00,,,0.00,WUHU216WMR968SP,2013-05-02 10:06:00,
2013-05-02 05:11:00,64.6,46.4,29.65,NE,43,0.0,4.9,53,0.00,,,0.00,WUHU216WMR968SP,2013-05-02 10:11:00,
2013-05-02 05:16:00,64.4,46.4,29.65,ENE,76,2.7,4.0,53,0.00,,,0.00,WUHU216WMR968SP,2013-05-02 10:16:00,
2013-05-02 05:21:00,64.2,46.4,29.65,NNE,14,0.0,4.0,53,0.00,,,0.00,WUHU216WMR968SP,2013-05-02 10:21:00,
2013-05-02 05:26:00,64.2,46.4,29.65,ENE,68,0.0,4.0,53,0.00,,,0.00,WUHU216WMR968SP,2013-05-02 10:26:00,
2013-05-02 05:31:00,64.0,46.4,29.65,ENE,58,2.2,4.0,53,0.00,,,0.00,WUHU216WMR968SP,2013-05-02 10:31:00,
2013-05-02 05:36:00,64.0,46.4,29.68,East,99,2.2,4.0,53,0.00,,,0.00,WUHU216WMR968SP,2013-05-02 10:36:00,
2013-05-02 05:41:00,64.0,46.4,29.68,NE,49,0.0,4.0,53,0.00,,,0.00,WUHU216WMR968SP,2013-05-02 10:41:00,
2013-05-02 05:46:00,63.9,46.4,29.68,NE,49,3.0,5.8,53,0.00,,,0.00,WUHU216WMR968SP,2013-05-02 10:46:00,
2013-05-02 05:51:00,63.9,46.4,29.68,ESE,108,0.0,6.3,53,0.00,,,0.00,WUHU216WMR968SP,2013-05-02 10:51:00,
2013-05-02 05:56:00,63.9,46.4,29.68,East,81,2.7,6.3,53,0.00,,,0.00,WUHU216WMR968SP,2013-05-02 10:56:00,
2013-05-02 06:01:00,63.9,46.4,29.68,NE,55,0.0,4.0,53,0.00,,,0.00,WUHU216WMR968SP,2013-05-02 11:01:00,
2013-05-02 06:06:00,63.7,46.4,29.68,ENE,73,0.0,2.2,53,0.00,,,0.00,WUHU216WMR968SP,2013-05-02 11:06:00,
2013-05-02 06:11:00,64.0,46.4,29.68,East,92,0.0,3.1,53,0.00,,,0.00,WUHU216WMR968SP,2013-05-02 11:11:00,
2013-05-02 06:16:00,64.0,46.4,29.68,ENE,76,0.0,3.1,52,0.00,,,0.00,WUHU216WMR968SP,2013-05-02 11:16:00,
2013-05-02 06:21:00,63.9,46.4,29.68,East,92,0.0,4.0,52,0.00,,,0.00,WUHU216WMR968SP,2013-05-02 11:21:00,
2013-05-02 06:26:00,63.7,46.4,29.68,NE,44,0.0,4.0,53,0.00,,,0.00,WUHU216WMR968SP,2013-05-02 11:26:00,
2013-05-02 06:31:00,63.7,46.4,29.68,ENE,63,0.0,2.7,53,0.00,,,0.00,WUHU216WMR968SP,2013-05-02 11:31:00,
2013-05-02 06:36:00,63.5,46.4,29.68,South,191,0.0,2.7,53,0.00,,,0.00,WUHU216WMR968SP,2013-05-02 11:36:00,
2013-05-02 06:41:00,63.5,46.4,29.68,North,353,0.0,0.0,53,0.00,,,0.00,WUHU216WMR968SP,2013-05-02 11:41:00,
2013-05-02 06:46:00,63.5,48.2,29.68,North,357,0.0,0.0,54,0.00,,,0.00,WUHU216WMR968SP,2013-05-02 11:46:00,
2013-05-02 06:51:00,63.5,48.2,29.68,North,5,0.0,0.0,55,0.00,,,0.00,WUHU216WMR968SP,2013-05-02 11:51:00,
2013-05-02 06:56:00,63.5,48.2,29.68,North,6,0.0,0.0,56,0.00,,,0.00,WUHU216WMR968SP,2013-05-02 11:56:00,
2013-05-02 07:01:00,63.5,48.2,29.68,North,6,0.0,0.0,56,0.00,,,0.00,WUHU216WMR968SP,2013-05-02 12:01:00,
2013-05-02 07:06:00,63.5,48.2,29.71,North,6,0.0,0.0,56,0.00,,,0.00,WUHU216WMR968SP,2013-05-02 12:06:00,
2013-05-02 07:11:00,63.7,48.2,29.71,North,6,0.0,0.0,56,0.00,,,0.00,WUHU216WMR968SP,2013-05-02 12:11:00,
2013-05-02 07:16:00,63.7,48.2,29.71,North,6,0.0,0.0,56,0.00,,,0.00,WUHU216WMR968SP,2013-05-02 12:16:00,
2013-05-02 07:21:00,63.7,48.2,29.71,NE,45,0.0,3.1,57,0.00,,,0.00,WUHU216WMR968SP,2013-05-02 12:21:00,
2013-05-02 07:26:00,63.7,48.2,29.71,East,93,0.0,3.1,57,0.00,,,0.00,WUHU216WMR968SP,2013-05-02 12:26:00,
2013-05-02 07:31:00,63.7,50.0,29.71,NNE,18,0.0,3.1,58,0.00,,,0.00,WUHU216WMR968SP,2013-05-02 12:31:00,
2013-05-02 07:36:00,63.9,50.0,29.71,NNE,28,0.0,3.1,59,0.00,,,0.00,WUHU216WMR968SP,2013-05-02 12:36:00,
2013-05-02 07:41:00,64.2,50.0,29.71,ENE,77,0.0,2.7,59,0.00,,,0.00,WUHU216WMR968SP,2013-05-02 12:41:00,
2013-05-02 07:46:00,64.2,50.0,29.71,NNE,17,0.0,4.0,59,0.00,,,0.00,WUHU216WMR968SP,2013-05-02 12:46:00,
2013-05-02 07:51:00,64.0,50.0,29.71,NNE,24,0.0,4.0,59,0.00,,,0.00,WUHU216WMR968SP,2013-05-02 12:51:00,
2013-05-02 07:56:00,63.9,50.0,29.71,North,11,0.0,4.0,59,0.00,,,0.00,WUHU216WMR968SP,2013-05-02 12:56:00,
2013-05-02 08:01:00,63.9,50.0,29.71,North,357,0.0,4.0,59,0.00,,,0.00,WUHU216WMR968SP,2013-05-02 13:01:00,
2013-05-02 08:06:00,63.7,50.0,29.71,NNE,22,0.0,0.0,60,0.00,,,0.00,WUHU216WMR968SP,2013-05-02 13:06:00,
2013-05-02 08:11:00,63.5,50.0,29.71,North,357,2.2,4.0,60,0.00,,,0.00,WUHU216WMR968SP,2013-05-02 13:11:00,
2013-05-02 08:16:00,63.5,50.0,29.71,NE,52,0.0,4.0,61,0.00,,,0.00,WUHU216WMR968SP,2013-05-02 13:16:00,
2013-05-02 08:21:00,63.5,50.0,29.71,NNE,28,0.0,4.0,61,0.00,,,0.00,WUHU216WMR968SP,2013-05-02 13:21:00,
2013-05-02 08:26:00,63.5,51.8,29.71,NNE,30,0.0,4.0,62,0.00,,,0.00,WUHU216WMR968SP,2013-05-02 13:26:00,
2013-05-02 08:31:00,63.5,51.8,29.71,East,84,0.0,4.0,62,0.00,,,0.00,WUHU216WMR968SP,2013-05-02 13:31:00,
2013-05-02 08:36:00,64.2,50.0,29.74,ENE,57,0.0,3.6,61,0.00,,,0.00,WUHU216WMR968SP,2013-05-02 13:36:00,
2013-05-02 08:41:00,64.4,50.0,29.74,NE,44,2.2,3.6,58,0.00,,,0.00,WUHU216WMR968SP,2013-05-02 13:41:00,
2013-05-02 08:46:00,63.1,48.2,29.74,SE,142,0.0,3.6,58,0.00,,,0.00,WUHU216WMR968SP,2013-05-02 13:46:00,
2013-05-02 08:51:00,61.9,48.2,29.74,ENE,74,0.0,3.6,61,0.00,,,0.00,WUHU216WMR968SP,2013-05-02 13:51:00,
2013-05-02 08:56:00,61.0,48.2,29.74,NE,40,0.0,2.2,65,0.00,,,0.00,WUHU216WMR968SP,2013-05-02 13:56:00,
2013-05-02 09:01:00,60.6,50.0,29.74,NNE,24,0.0,2.7,68,0.00,,,0.00,WUHU216WMR968SP,2013-05-02 14:01:00,
2013-05-02 09:06:00,60.4,51.8,29.74,NNE,24,0.0,2.7,70,0.00,,,0.00,WUHU216WMR968SP,2013-05-02 14:06:00,
2013-05-02 09:11:00,60.6,51.8,29.74,NNE,24,0.0,0.0,72,0.00,,,0.00,WUHU216WMR968SP,2013-05-02 14:11:00,
2013-05-02 09:16:00,60.8,51.8,29.74,NNE,24,0.0,0.0,73,0.00,,,0.00,WUHU216WMR968SP,2013-05-02 14:16:00,
2013-05-02 09:21:00,61.0,53.6,29.74,NNE,24,0.0,0.0,75,0.00,,,0.00,WUHU216WMR968SP,2013-05-02 14:21:00,
2013-05-02 09:26:00,61.0,53.6,29.74,NW,326,0.0,0.0,77,0.00,,,0.00,WUHU216WMR968SP,2013-05-02 14:26:00,
2013-05-02 09:31:00,60.8,53.6,29.74,North,353,0.0,2.7,78,0.00,,,0.00,WUHU216WMR968SP,2013-05-02 14:31:00,
2013-05-02 09:36:00,60.8,53.6,29.74,North,357,0.0,2.7,79,0.00,,,0.00,WUHU216WMR968SP,2013-05-02 14:36:00,
2013-05-02 09:41:00,61.2,55.4,29.74,North,0,0.0,3.1,81,0.00,,,0.00,WUHU216WMR968SP,2013-05-02 14:41:00,
2013-05-02 09:46:00,61.3,55.4,29.74,North,349,0.0,3.1,81,0.00,,,0.00,WUHU216WMR968SP,2013-05-02 14:46:00,
2013-05-02 09:51:00,61.3,55.4,29.74,North,349,0.0,2.2,81,0.00,,,0.00,WUHU216WMR968SP,2013-05-02 14:51:00,
2013-05-02 09:56:00,61.3,55.4,29.74,ENE,60,0.0,0.0,82,0.00,,,0.00,WUHU216WMR968SP,2013-05-02 14:56:00,
2013-05-02 10:01:00,61.7,57.2,29.74,ENE,60,0.0,0.0,82,0.00,,,0.00,WUHU216WMR968SP,2013-05-02 15:01:00,
2013-05-02 10:06:00,62.2,57.2,29.74,ENE,60,0.0,0.0,83,0.00,,,0.00,WUHU216WMR968SP,2013-05-02 15:06:00,
2013-05-02 10:11:00,62.6,57.2,29.74,NE,38,2.2,3.1,82,0.00,,,0.00,WUHU216WMR968SP,2013-05-02 15:11:00,
2013-05-02 10:16:00,62.6,57.2,29.74,NNE,14,0.0,3.1,82,0.00,,,0.00,WUHU216WMR968SP,2013-05-02 15:16:00,
2013-05-02 10:21:00,63.0,57.2,29.74,NNE,30,0.0,2.7,83,0.00,,,0.00,WUHU216WMR968SP,2013-05-02 15:21:00,
2013-05-02 10:26:00,63.5,59.0,29.74,NNE,24,0.0,0.0,83,0.00,,,0.00,WUHU216WMR968SP,2013-05-02 15:26:00,
2013-05-02 10:31:00,63.9,59.0,29.74,NNW,348,2.2,3.6,83,0.00,,,0.00,WUHU216WMR968SP,2013-05-02 15:31:00,
2013-05-02 10:36:00,64.0,59.0,29.71,North,9,0.0,3.6,83,0.00,,,0.00,WUHU216WMR968SP,2013-05-02 15:36:00,
2013-05-02 10:41:00,63.9,59.0,29.71,North,11,0.0,2.2,83,0.00,,,0.00,WUHU216WMR968SP,2013-05-02 15:41:00,
2013-05-02 10:46:00,63.7,59.0,29.71,NNW,344,2.7,3.1,83,0.00,,,0.00,WUHU216WMR968SP,2013-05-02 15:46:00,
2013-05-02 10:51:00,63.9,59.0,29.71,NW,323,0.0,3.1,83,0.00,,,0.00,WUHU216WMR968SP,2013-05-02 15:51:00,
2013-05-02 10:56:00,64.4,59.0,29.71,ESE,112,0.0,3.1,83,0.00,,,0.00,WUHU216WMR968SP,2013-05-02 15:56:00,
2013-05-02 11:01:00,64.2,59.0,29.71,ENE,78,0.0,3.1,82,0.00,,,0.00,WUHU216WMR968SP,2013-05-02 16:01:00,
2013-05-02 11:06:00,64.4,59.0,29.71,NNW,331,0.0,2.7,83,0.00,,,0.00,WUHU216WMR968SP,2013-05-02 16:06:00,
2013-05-02 11:11:00,64.4,59.0,29.71,East,100,0.0,2.7,82,0.00,,,0.00,WUHU216WMR968SP,2013-05-02 16:11:00,
2013-05-02 11:16:00,64.8,59.0,29.71,East,98,0.0,0.0,83,0.00,,,0.00,WUHU216WMR968SP,2013-05-02 16:16:00,
2013-05-02 11:21:00,65.1,59.0,29.71,NNE,20,0.0,2.7,84,0.00,,,0.00,WUHU216WMR968SP,2013-05-02 16:21:00,
2013-05-02 11:26:00,64.9,59.0,29.71,NE,49,0.0,3.6,83,0.00,,,0.00,WUHU216WMR968SP,2013-05-02 16:26:00,
2013-05-02 11:31:00,64.8,59.0,29.71,ESE,106,0.0,4.9,83,0.00,,,0.00,WUHU216WMR968SP,2013-05-02 16:31:00,
2013-05-02 11:36:00,64.2,59.0,29.74,ENE,57,0.0,4.9,82,0.00,,,0.00,WUHU216WMR968SP,2013-05-02 16:36:00,
2013-05-02 11:41:00,64.4,59.0,29.74,North,5,2.7,4.5,82,0.00,,,0.00,WUHU216WMR968SP,2013-05-02 16:41:00,
2013-05-02 11:46:00,64.6,59.0,29.74,SE,139,0.0,4.5,82,0.00,,,0.00,WUHU216WMR968SP,2013-05-02 16:46:00,
2013-05-02 11:51:00,64.9,59.0,29.71,NE,47,2.7,4.0,82,0.00,,,0.00,WUHU216WMR968SP,2013-05-02 16:51:00,
2013-05-02 11:56:00,65.1,59.0,29.71,East,83,0.0,4.0,82,0.00,,,0.00,WUHU216WMR968SP,2013-05-02 16:56:00,
2013-05-02 12:01:00,65.1,59.0,29.71,East,90,2.2,3.6,81,0.00,,,0.00,WUHU216WMR968SP,2013-05-02 17:01:00,
2013-05-02 12:06:00,64.9,57.2,29.71,East,86,0.0,3.6,80,0.00,,,0.00,WUHU216WMR968SP,2013-05-02 17:06:00,
2013-05-02 12:11:00,65.1,57.2,29.71,East,89,0.0,3.1,79,0.00,,,0.00,WUHU216WMR968SP,2013-05-02 17:11:00,
2013-05-02 12:16:00,65.3,59.0,29.71,SSE,164,0.0,3.1,79,0.00,,,0.00,WUHU216WMR968SP,2013-05-02 17:16:00,
2013-05-02 12:21:00,64.9,57.2,29.71,ENE,70,0.0,2.7,79,0.00,,,0.00,WUHU216WMR968SP,2013-05-02 17:21:00,
2013-05-02 12:26:00,65.1,57.2,29.71,East,90,2.2,3.1,79,0.00,,,0.00,WUHU216WMR968SP,2013-05-02 17:26:00,
2013-05-02 12:31:00,64.9,57.2,29.71,East,101,2.7,3.6,79,0.00,,,0.00,WUHU216WMR968SP,2013-05-02 17:31:00,
2013-05-02 12:36:00,64.8,57.2,29.71,East,95,0.0,3.6,78,0.00,,,0.00,WUHU216WMR968SP,2013-05-02 17:36:00,
2013-05-02 12:41:00,64.4,57.2,29.71,East,101,0.0,4.0,79,0.00,,,0.00,WUHU216WMR968SP,2013-05-02 17:41:00,
2013-05-02 12:46:00,63.9,57.2,29.71,SE,145,2.2,4.0,79,0.00,,,0.00,WUHU216WMR968SP,2013-05-02 17:46:00,
2013-05-02 12:51:00,63.9,57.2,29.71,ENE,70,0.0,3.6,80,0.00,,,0.00,WUHU216WMR968SP,2013-05-02 17:51:00,
2013-05-02 12:56:00,63.9,57.2,29.71,ENE,71,0.0,3.6,80,0.00,,,0.00,WUHU216WMR968SP,2013-05-02 17:56:00,
2013-05-02 13:01:00,63.7,57.2,29.71,ENE,71,0.0,3.1,80,0.00,,,0.00,WUHU216WMR968SP,2013-05-02 18:01:00,
2013-05-02 13:06:00,63.3,57.2,29.71,NE,34,0.0,4.0,80,0.00,,,0.00,WUHU216WMR968SP,2013-05-02 18:06:00,
2013-05-02 13:11:00,63.1,57.2,29.71,East,80,0.0,4.0,81,0.00,,,0.00,WUHU216WMR968SP,2013-05-02 18:11:00,
2013-05-02 13:16:00,63.1,57.2,29.71,North,11,0.0,3.1,81,0.00,,,0.00,WUHU216WMR968SP,2013-05-02 18:16:00,
2013-05-02 13:21:00,63.0,57.2,29.71,North,9,0.0,2.7,82,0.00,,,0.00,WUHU216WMR968SP,2013-05-02 18:21:00,
2013-05-02 13:26:00,63.0,57.2,29.71,North,5,2.2,2.7,82,0.00,,,0.00,WUHU216WMR968SP,2013-05-02 18:26:00,
2013-05-02 13:31:00,62.8,57.2,29.71,NNE,15,0.0,2.7,83,0.00,,,0.00,WUHU216WMR968SP,2013-05-02 18:31:00,
2013-05-02 13:36:00,62.6,57.2,29.71,NNE,24,0.0,4.0,83,0.00,,,0.00,WUHU216WMR968SP,2013-05-02 18:36:00,
2013-05-02 13:41:00,62.4,57.2,29.71,North,9,0.0,4.0,83,0.00,,,0.00,WUHU216WMR968SP,2013-05-02 18:41:00,
2013-05-02 13:46:00,62.4,57.2,29.71,NNE,23,2.2,4.0,84,0.00,,,0.00,WUHU216WMR968SP,2013-05-02 18:46:00,
2013-05-02 13:51:00,62.4,57.2,29.71,North,5,3.1,4.9,84,0.00,,,0.00,WUHU216WMR968SP,2013-05-02 18:51:00,
2013-05-02 13:56:00,62.4,57.2,29.71,North,11,2.2,4.9,84,0.00,,,0.00,WUHU216WMR968SP,2013-05-02 18:56:00,
2013-05-02 14:01:00,62.6,57.2,29.71,North,2,0.0,5.4,85,0.00,,,0.00,WUHU216WMR968SP,2013-05-02 19:01:00,
2013-05-02 14:06:00,62.6,57.2,29.71,NNE,14,0.0,5.4,85,0.00,,,0.00,WUHU216WMR968SP,2013-05-02 19:06:00,
2013-05-02 14:11:00,63.0,59.0,29.71,NNE,18,0.0,5.4,86,0.00,,,0.00,WUHU216WMR968SP,2013-05-02 19:11:00,
2013-05-02 14:16:00,63.0,59.0,29.71,NNE,21,0.0,3.6,86,0.00,,,0.00,WUHU216WMR968SP,2013-05-02 19:16:00,
2013-05-02 14:21:00,62.8,59.0,29.71,NNE,26,0.0,3.6,86,0.00,,,0.00,WUHU216WMR968SP,2013-05-02 19:21:00,
2013-05-02 14:26:00,62.6,59.0,29.71,East,83,0.0,4.0,86,0.00,,,0.00,WUHU216WMR968SP,2013-05-02 19:26:00,
2013-05-02 14:31:00,62.6,59.0,29.71,NE,48,2.2,4.0,87,0.00,,,0.00,WUHU216WMR968SP,2013-05-02 19:31:00,
2013-05-02 14:36:00,62.4,59.0,29.71,North,6,0.0,5.4,87,0.00,,,0.00,WUHU216WMR968SP,2013-05-02 19:36:00,
2013-05-02 14:41:00,62.6,59.0,29.71,NE,43,2.2,5.4,87,0.00,,,0.00,WUHU216WMR968SP,2013-05-02 19:41:00,
2013-05-02 14:46:00,62.4,59.0,29.71,NNE,28,0.0,5.4,88,0.00,,,0.00,WUHU216WMR968SP,2013-05-02 19:46:00,
2013-05-02 14:51:00,62.4,59.0,29.68,ENE,59,2.4,4.0,88,0.00,,,0.00,WUHU216WMR968SP,2013-05-02 19:51:00,
2013-05-02 14:56:00,62.6,59.0,29.68,NE,53,0.0,4.0,88,0.00,,,0.00,WUHU216WMR968SP,2013-05-02 19:56:00,
2013-05-02 15:01:00,62.8,59.0,29.68,NE,43,0.0,3.6,89,0.00,,,0.00,WUHU216WMR968SP,2013-05-02 20:01:00,
2013-05-02 15:06:00,62.8,59.0,29.68,East,79,0.0,4.0,89,0.00,,,0.00,WUHU216WMR968SP,2013-05-02 20:06:00,
2013-05-02 15:11:00,63.0,59.0,29.68,East,79,0.0,4.0,89,0.00,,,0.00,WUHU216WMR968SP,2013-05-02 20:11:00,
2013-05-02 15:16:00,63.0,59.0,29.68,East,79,0.0,0.0,89,0.00,,,0.00,WUHU216WMR968SP,2013-05-02 20:16:00,
2013-05-02 15:21:00,63.0,59.0,29.68,NNE,24,0.0,3.6,90,0.00,,,0.00,WUHU216WMR968SP,2013-05-02 20:21:00,
2013-05-02 15:26:00,63.1,59.0,29.68,NE,53,0.0,3.6,90,0.00,,,0.00,WUHU216WMR968SP,2013-05-02 20:26:00,
2013-05-02 15:31:00,63.1,59.0,29.68,NE,53,0.0,2.2,90,0.00,,,0.00,WUHU216WMR968SP,2013-05-02 20:31:00,
2013-05-02 15:36:00,63.0,59.0,29.68,North,4,2.2,4.0,90,0.00,,,0.00,WUHU216WMR968SP,2013-05-02 20:36:00,
2013-05-02 15:41:00,63.1,59.0,29.68,North,4,0.0,4.0,90,0.00,,,0.00,WUHU216WMR968SP,2013-05-02 20:41:00,
2013-05-02 15:46:00,63.1,59.0,29.68,NNW,332,0.0,2.7,90,0.00,,,0.00,WUHU216WMR968SP,2013-05-02 20:46:00,
2013-05-02 15:51:00,63.0,59.0,29.68,NNW,346,2.2,2.7,90,0.00,,,0.00,WUHU216WMR968SP,2013-05-02 20:51:00,
2013-05-02 15:56:00,63.0,59.0,29.68,NNW,345,0.0,2.7,90,0.00,,,0.00,WUHU216WMR968SP,2013-05-02 20:56:00,
2013-05-02 16:01:00,63.0,59.0,29.68,NW,319,0.0,0.0,90,0.00,,,0.00,WUHU216WMR968SP,2013-05-02 21:01:00,
2013-05-02 16:06:00,63.0,59.0,29.68,NW,319,0.0,0.0,90,0.00,,,0.00,WUHU216WMR968SP,2013-05-02 21:06:00,
2013-05-02 16:11:00,63.0,60.8,29.68,NW,319,0.0,0.0,91,0.00,,,0.00,WUHU216WMR968SP,2013-05-02 21:11:00,
2013-05-02 16:16:00,63.0,60.8,29.68,NW,319,0.0,0.0,91,0.00,,,0.00,WUHU216WMR968SP,2013-05-02 21:16:00,
2013-05-02 16:21:00,63.1,60.8,29.68,NW,319,0.0,0.0,91,0.00,,,0.00,WUHU216WMR968SP,2013-05-02 21:21:00,
2013-05-02 16:26:00,63.1,60.8,29.68,NW,319,0.0,0.0,91,0.00,,,0.00,WUHU216WMR968SP,2013-05-02 21:26:00,
2013-05-02 16:31:00,63.1,60.8,29.68,NW,319,0.0,0.0,91,0.00,,,0.00,WUHU216WMR968SP,2013-05-02 21:31:00,
2013-05-02 16:36:00,63.1,60.8,29.68,NNW,341,0.0,2.2,91,0.00,,,0.00,WUHU216WMR968SP,2013-05-02 21:36:00,
2013-05-02 16:41:00,63.1,60.8,29.68,NNW,337,0.0,2.2,91,0.00,,,0.00,WUHU216WMR968SP,2013-05-02 21:41:00,
2013-05-02 16:46:00,63.1,60.8,29.68,NNW,334,0.0,0.0,91,0.00,,,0.00,WUHU216WMR968SP,2013-05-02 21:46:00,
2013-05-02 16:51:00,63.1,60.8,29.65,NNW,334,0.0,0.0,92,0.00,,,0.00,WUHU216WMR968SP,2013-05-02 21:51:00,
2013-05-02 16:56:00,63.1,60.8,29.65,NNW,334,0.0,0.0,92,0.00,,,0.00,WUHU216WMR968SP,2013-05-02 21:56:00,
2013-05-02 17:01:00,63.1,60.8,29.65,NNW,334,0.0,0.0,92,0.00,,,0.00,WUHU216WMR968SP,2013-05-02 22:01:00,
2013-05-02 17:06:00,63.1,60.8,29.65,NNW,340,0.0,0.0,92,0.00,,,0.00,WUHU216WMR968SP,2013-05-02 22:06:00,
2013-05-02 17:11:00,63.3,60.8,29.65,NNW,340,0.0,0.0,92,0.00,,,0.00,WUHU216WMR968SP,2013-05-02 22:11:00,
2013-05-02 17:16:00,63.5,62.6,29.65,North,353,0.0,2.2,92,0.00,,,0.00,WUHU216WMR968SP,2013-05-02 22:16:00,
2013-05-02 17:21:00,63.3,60.8,29.65,North,357,0.0,2.2,92,0.00,,,0.00,WUHU216WMR968SP,2013-05-02 22:21:00,
2013-05-02 17:26:00,63.3,60.8,29.65,North,0,0.0,2.2,92,0.00,,,0.00,WUHU216WMR968SP,2013-05-02 22:26:00,
2013-05-02 17:31:00,63.1,60.8,29.65,North,11,0.0,3.1,92,0.00,,,0.00,WUHU216WMR968SP,2013-05-02 22:31:00,
2013-05-02 17:36:00,63.1,60.8,29.65,North,357,0.0,3.1,92,0.00,,,0.00,WUHU216WMR968SP,2013-05-02 22:36:00,
2013-05-02 17:41:00,63.1,60.8,29.65,NNE,25,0.0,2.2,92,0.00,,,0.00,WUHU216WMR968SP,2013-05-02 22:41:00,
2013-05-02 17:46:00,63.1,60.8,29.65,NNE,23,0.0,2.7,92,0.00,,,0.00,WUHU216WMR968SP,2013-05-02 22:46:00,
2013-05-02 17:51:00,63.3,60.8,29.65,NNE,23,0.0,2.7,92,0.00,,,0.00,WUHU216WMR968SP,2013-05-02 22:51:00,
2013-05-02 17:56:00,63.5,62.6,29.65,NNE,16,0.0,2.2,92,0.00,,,0.00,WUHU216WMR968SP,2013-05-02 22:56:00,
2013-05-02 18:01:00,63.5,62.6,29.65,NNE,16,0.0,2.2,92,0.00,,,0.00,WUHU216WMR968SP,2013-05-02 23:01:00,
2013-05-02 18:06:00,63.5,62.6,29.65,NNE,16,0.0,0.0,92,0.00,,,0.00,WUHU216WMR968SP,2013-05-02 23:06:00,
2013-05-02 18:11:00,63.5,62.6,29.65,NNE,16,0.0,0.0,92,0.00,,,0.00,WUHU216WMR968SP,2013-05-02 23:11:00,
2013-05-02 18:16:00,63.5,62.6,29.65,NNE,16,0.0,0.0,93,0.00,,,0.00,WUHU216WMR968SP,2013-05-02 23:16:00,
2013-05-02 18:21:00,63.5,62.6,29.65,NNE,16,0.0,0.0,93,0.00,,,0.00,WUHU216WMR968SP,2013-05-02 23:21:00,
2013-05-02 18:26:00,63.3,60.8,29.65,NNE,16,0.0,2.7,93,0.00,,,0.00,WUHU216WMR968SP,2013-05-02 23:26:00,
2013-05-02 18:31:00,63.3,60.8,29.65,NNE,16,0.0,2.7,93,0.00,,,0.00,WUHU216WMR968SP,2013-05-02 23:31:00,
2013-05-02 18:36:00,63.3,60.8,29.65,North,357,0.0,2.2,93,0.00,,,0.00,WUHU216WMR968SP,2013-05-02 23:36:00,
2013-05-02 18:41:00,63.3,60.8,29.65,NNE,16,0.0,3.6,93,0.00,,,0.00,WUHU216WMR968SP,2013-05-02 23:41:00,
2013-05-02 18:46:00,63.3,60.8,29.65,North,0,0.0,3.6,93,0.00,,,0.00,WUHU216WMR968SP,2013-05-02 23:46:00,
2013-05-02 18:50:00,63.5,62.6,29.65,North,5,0.0,3.6,93,0.00,,,0.00,WUHU216WMR968SP,2013-05-02 23:50:00,
2013-05-02 18:55:00,63.5,62.6,29.65,NNE,17,0.0,2.7,93,0.00,,,0.00,WUHU216WMR968SP,2013-05-02 23:55:00,
2013-05-02 19:00:00,63.3,60.8,29.65,North,353,0.0,0.0,93,0.00,,,0.00,WUHU216WMR968SP,2013-05-03 00:00:00,
2013-05-02 19:05:00,63.3,60.8,29.65,North,353,0.0,0.0,93,0.00,,,0.00,WUHU216WMR968SP,2013-05-03 00:05:00,
2013-05-02 19:10:00,63.3,60.8,29.65,North,353,0.0,0.0,93,0.00,,,0.00,WUHU216WMR968SP,2013-05-03 00:10:00,
2013-05-02 19:15:00,63.3,60.8,29.65,North,353,0.0,0.0,93,0.00,,,0.00,WUHU216WMR968SP,2013-05-03 00:15:00,
2013-05-02 19:20:00,63.3,60.8,29.65,North,353,0.0,0.0,93,0.00,,,0.00,WUHU216WMR968SP,2013-05-03 00:20:00,
2013-05-02 19:25:00,63.3,60.8,29.65,North,4,0.0,0.0,93,0.00,,,0.00,WUHU216WMR968SP,2013-05-03 00:25:00,
2013-05-02 19:30:00,63.3,60.8,29.65,North,4,0.0,0.0,93,0.00,,,0.00,WUHU216WMR968SP,2013-05-03 00:30:00,
2013-05-02 19:35:00,63.3,60.8,29.65,North,4,0.0,0.0,93,0.00,,,0.00,WUHU216WMR968SP,2013-05-03 00:35:00,
2013-05-02 19:40:00,63.3,60.8,29.65,North,4,0.0,0.0,93,0.00,,,0.00,WUHU216WMR968SP,2013-05-03 00:40:00,
2013-05-02 19:45:00,63.1,60.8,29.65,North,4,0.0,0.0,93,0.00,,,0.00,WUHU216WMR968SP,2013-05-03 00:45:00,
2013-05-02 19:50:00,63.1,60.8,29.65,North,4,0.0,0.0,93,0.00,,,0.00,WUHU216WMR968SP,2013-05-03 00:50:00,
2013-05-02 19:55:00,63.0,60.8,29.65,North,4,0.0,0.0,93,0.00,,,0.00,WUHU216WMR968SP,2013-05-03 00:55:00,
2013-05-02 20:00:00,63.1,60.8,29.65,North,4,0.0,0.0,93,0.00,,,0.00,WUHU216WMR968SP,2013-05-03 01:00:00,
2013-05-02 20:05:00,63.1,60.8,29.65,North,353,0.0,0.0,93,0.00,,,0.00,WUHU216WMR968SP,2013-05-03 01:05:00,
2013-05-02 20:10:00,63.0,60.8,29.65,North,353,0.0,0.0,93,0.00,,,0.00,WUHU216WMR968SP,2013-05-03 01:10:00,
2013-05-02 20:15:00,63.1,60.8,29.65,North,353,0.0,0.0,93,0.00,,,0.00,WUHU216WMR968SP,2013-05-03 01:15:00,
2013-05-02 20:20:00,63.1,60.8,29.65,North,353,0.0,0.0,93,0.00,,,0.00,WUHU216WMR968SP,2013-05-03 01:20:00,
2013-05-02 20:25:00,63.0,60.8,29.65,North,353,0.0,0.0,93,0.00,,,0.00,WUHU216WMR968SP,2013-05-03 01:25:00,
2013-05-02 20:30:00,62.8,60.8,29.65,North,353,0.0,0.0,93,0.00,,,0.00,WUHU216WMR968SP,2013-05-03 01:30:00,
2013-05-02 20:35:00,62.8,60.8,29.65,North,353,0.0,0.0,93,0.00,,,0.00,WUHU216WMR968SP,2013-05-03 01:35:00,
2013-05-02 20:40:00,62.6,60.8,29.65,North,353,0.0,0.0,93,0.00,,,0.00,WUHU216WMR968SP,2013-05-03 01:40:00,
2013-05-02 20:45:00,62.6,60.8,29.65,North,353,0.0,0.0,93,0.00,,,0.00,WUHU216WMR968SP,2013-05-03 01:45:00,
2013-05-02 20:50:00,62.6,60.8,29.65,North,353,0.0,0.0,93,0.00,,,0.00,WUHU216WMR968SP,2013-05-03 01:50:00,
2013-05-02 20:55:00,62.8,60.8,29.65,North,353,0.0,0.0,93,0.00,,,0.00,WUHU216WMR968SP,2013-05-03 01:55:00,
2013-05-02 21:00:00,62.8,60.8,29.65,North,353,0.0,0.0,93,0.00,,,0.00,WUHU216WMR968SP,2013-05-03 02:00:00,
2013-05-02 21:05:00,62.6,60.8,29.65,North,353,0.0,0.0,93,0.00,,,0.00,WUHU216WMR968SP,2013-05-03 02:05:00,
2013-05-02 21:10:00,62.6,60.8,29.65,North,353,0.0,0.0,93,0.00,,,0.00,WUHU216WMR968SP,2013-05-03 02:10:00,
2013-05-02 21:15:00,62.6,60.8,29.65,North,353,0.0,0.0,93,0.00,,,0.00,WUHU216WMR968SP,2013-05-03 02:15:00,
2013-05-02 21:20:00,62.6,60.8,29.65,North,353,0.0,0.0,93,0.00,,,0.00,WUHU216WMR968SP,2013-05-03 02:20:00,
2013-05-02 21:25:00,62.6,60.8,29.65,North,353,0.0,0.0,93,0.00,,,0.00,WUHU216WMR968SP,2013-05-03 02:25:00,
2013-05-02 21:30:00,62.6,60.8,29.65,North,353,0.0,0.0,93,0.00,,,0.00,WUHU216WMR968SP,2013-05-03 02:30:00,
2013-05-02 21:35:00,62.6,60.8,29.65,North,353,0.0,0.0,94,0.00,,,0.00,WUHU216WMR968SP,2013-05-03 02:35:00,
2013-05-02 21:40:00,62.6,60.8,29.65,North,353,0.0,0.0,94,0.00,,,0.00,WUHU216WMR968SP,2013-05-03 02:40:00,
2013-05-02 21:45:00,62.8,60.8,29.65,North,353,0.0,0.0,94,0.00,,,0.00,WUHU216WMR968SP,2013-05-03 02:45:00,
2013-05-02 21:50:00,62.6,60.8,29.65,North,353,0.0,0.0,94,0.00,,,0.00,WUHU216WMR968SP,2013-05-03 02:50:00,
2013-05-02 21:55:00,62.6,60.8,29.65,North,353,0.0,0.0,94,0.00,,,0.00,WUHU216WMR968SP,2013-05-03 02:55:00,
2013-05-02 22:00:00,62.6,60.8,29.65,North,353,0.0,0.0,94,0.00,,,0.00,WUHU216WMR968SP,2013-05-03 03:00:00,
2013-05-02 22:05:00,62.6,60.8,29.65,North,353,0.0,0.0,94,0.00,,,0.00,WUHU216WMR968SP,2013-05-03 03:05:00,
2013-05-02 22:10:00,62.6,60.8,29.65,North,353,0.0,0.0,94,0.00,,,0.00,WUHU216WMR968SP,2013-05-03 03:10:00,
2013-05-02 22:15:00,62.6,60.8,29.65,North,353,0.0,0.0,94,0.00,,,0.00,WUHU216WMR968SP,2013-05-03 03:15:00,
2013-05-02 22:20:00,62.6,60.8,29.65,North,353,0.0,0.0,94,0.00,,,0.00,WUHU216WMR968SP,2013-05-03 03:20:00,
2013-05-02 22:25:00,62.6,60.8,29.65,North,353,0.0,0.0,94,0.00,,,0.00,WUHU216WMR968SP,2013-05-03 03:25:00,
2013-05-02 22:30:00,62.6,60.8,29.65,North,353,0.0,0.0,94,0.00,,,0.00,WUHU216WMR968SP,2013-05-03 03:30:00,
2013-05-02 22:35:00,62.6,60.8,29.65,North,353,0.0,0.0,94,0.00,,,0.00,WUHU216WMR968SP,2013-05-03 03:35:00,
2013-05-02 22:40:00,62.6,60.8,29.65,North,353,0.0,0.0,94,0.00,,,0.00,WUHU216WMR968SP,2013-05-03 03:40:00,
2013-05-02 22:45:00,62.8,60.8,29.65,North,353,0.0,0.0,94,0.00,,,0.00,WUHU216WMR968SP,2013-05-03 03:45:00,
2013-05-02 22:50:00,62.6,60.8,29.65,North,353,0.0,0.0,94,0.00,,,0.00,WUHU216WMR968SP,2013-05-03 03:50:00,
2013-05-02 22:55:00,62.6,60.8,29.65,North,353,0.0,0.0,94,0.00,,,0.00,WUHU216WMR968SP,2013-05-03 03:55:00,
2013-05-02 23:00:00,62.4,60.8,29.65,North,353,0.0,0.0,94,0.00,,,0.00,WUHU216WMR968SP,2013-05-03 04:00:00,
2013-05-02 23:01:00,62.4,60.8,29.65,North,353,0.0,0.0,94,0.00,,,0.00,WUHU216WMR968SP,2013-05-03 04:01:00,
2013-05-02 23:02:00,62.4,60.8,29.65,North,353,0.0,0.0,94,0.00,,,0.00,WUHU216WMR968SP,2013-05-03 04:02:00,
2013-05-02 23:07:00,62.2,60.8,29.62,North,353,0.0,0.0,94,0.00,,,0.00,WUHU216WMR968SP,2013-05-03 04:07:00,
2013-05-02 23:12:00,62.2,60.8,29.62,North,353,0.0,0.0,94,0.00,,,0.00,WUHU216WMR968SP,2013-05-03 04:12:00,
2013-05-02 23:17:00,62.2,60.8,29.62,ESE,111,0.0,0.0,94,0.00,,,0.00,WUHU216WMR968SP,2013-05-03 04:17:00,
2013-05-02 23:22:00,62.2,60.8,29.62,ESE,111,0.0,0.0,94,0.00,,,0.00,WUHU216WMR968SP,2013-05-03 04:22:00,
2013-05-02 23:27:00,62.1,60.8,29.62,ESE,111,0.0,0.0,94,0.00,,,0.00,WUHU216WMR968SP,2013-05-03 04:27:00,
2013-05-02 23:32:00,62.2,60.8,29.62,ESE,111,0.0,0.0,94,0.00,,,0.00,WUHU216WMR968SP,2013-05-03 04:32:00,
2013-05-02 23:37:00,62.1,60.8,29.62,ESE,111,0.0,0.0,94,0.00,,,0.00,WUHU216WMR968SP,2013-05-03 04:37:00,
2013-05-02 23:42:00,61.9,60.8,29.62,ESE,111,0.0,0.0,94,0.00,,,0.00,WUHU216WMR968SP,2013-05-03 04:42:00,
2013-05-02 23:47:00,61.9,60.8,29.62,ESE,111,0.0,0.0,94,0.00,,,0.00,WUHU216WMR968SP,2013-05-03 04:47:00,
2013-05-02 23:52:00,61.9,60.8,29.62,ESE,111,0.0,0.0,94,0.00,,,0.00,WUHU216WMR968SP,2013-05-03 04:52:00,
2013-05-02 23:57:00,61.9,60.8,29.62,ESE,111,0.0,0.0,94,0.00,,,0.00,WUHU216WMR968SP,2013-05-03 04:57:00,